GFSNE_sfc_rhum_324.txt.gz
RH
89 88 87 88 87 85 85 79 66 60 73 83 78 78 76 72 71 76 77 75 77 74 78 75 73 70 67 69 71 69 69 74 72 73 74 75 75 74
85 84 87 87 86 85 84 83 82 75 70 84 80 79 76 64 68 76 76 76 78 74 77 81 76 74 71 70 70 70 69 69 73 71 73 75 76 76
82 83 86 82 83 84 85 82 82 80 74 77 81 77 76 77 75 76 76 76 76 71 76 82 79 78 75 70 69 73 71 70 71 71 70 73 75 77
80 80 82 70 86 85 85 86 84 83 77 76 81 79 77 78 80 82 77 67 74 70 70 78 81 78 76 74 72 74 73 72 74 76 77 76 74 73
77 76 78 81 84 84 85 86 86 77 82 78 79 82 79 79 82 80 76 77 68 69 72 74 80 78 76 76 75 75 75 75 75 73 71 73 71 73
82 81 78 75 80 83 80 84 82 84 81 80 78 79 80 81 77 82 79 78 79 72 75 71 78 82 81 75 73 72 74 73 70 70 72 74 75 72
84 81 84 77 74 78 79 85 86 85 82 79 80 82 85 81 85 84 82 82 79 87 81 73 72 79 80 84 74 71 71 71 73 71 73 74 74 75
85 84 88 79 86 87 84 85 83 80 80 82 84 88 88 85 85 84 91 85 92 82 86 72 72 72 82 74 75 71 75 72 68 68 69 67 70 76
87 90 81 70 88 87 84 83 81 78 79 78 83 88 91 88 89 82 85 87 91 88 88 92 74 78 75 77 86 79 76 68 62 65 65 67 69 74
87 89 82 80 87 84 81 81 79 77 74 72 81 83 85 84 89 90 88 80 83 92 79 95 90 88 79 82 87 84 82 70 58 64 62 66 66 71
82 88 81 80 78 85 81 80 78 76 76 76 76 79 84 83 86 88 92 92 87 91 87 90 94 94 93 95 89 80 85 83 60 63 61 63 65 71
86 89 83 80 79 89 79 79 82 85 78 76 74 74 76 80 83 86 91 89 91 91 92 94 94 95 93 94 91 89 89 91 70 61 64 63 65 80
87 89 85 83 80 88 80 79 82 82 90 84 85 86 82 83 89 89 90 89 91 91 89 97 90 93 92 93 89 89 90 98 98 81 65 66 67 74
85 88 84 83 84 83 85 83 83 90 90 88 88 90 88 89 89 90 89 90 94 93 88 89 94 96 97 93 93 88 88 93 94 99 88 70 70 77
85 85 86 83 86 87 86 86 91 88 89 89 90 91 89 91 86 89 88 77 78 81 79 85 96 96 97 94 98 93 96 88 87 93 98 93 90 92
92 87 88 88 92 93 91 91 90 89 87 86 89 89 86 90 90 91 90 86 87 84 75 77 84 89 91 91 93 94 90 92 90 92 96 97 90 90
92 90 92 91 92 92 92 92 93 90 88 88 89 87 83 89 89 91 89 89 87 87 86 79 76 86 90 90 97 93 94 92 89 90 88 89 87 86
86 89 88 87 86 89 91 93 94 92 88 86 88 85 84 86 90 88 84 89 92 88 88 85 82 79 78 81 90 94 93 93 91 86 92 90 86 87
84 83 83 85 85 88 89 91 93 89 84 86 89 88 86 83 91 89 90 85 89 92 90 88 84 84 87 91 86 84 95 92 93 91 86 90 97 93
78 78 79 81 82 84 88 90 92 91 88 87 91 89 90 88 93 90 86 90 87 95 93 88 87 83 85 87 94 96 86 91 96 92 92 87 86 84
74 76 74 78 80 83 86 90 90 90 88 88 88 89 93 89 92 93 87 86 88 94 93 88 82 87 83 87 92 88 94 84 87 89 89 92 90 88
81 77 77 79 82 86 90 92 93 92 89 89 91 92 92 88 90 92 90 91 93 93 90 90 88 79 80 80 85 90 87 89 82 86 92 88 88 89
87 84 85 83 85 85 88 90 90 90 89 88 89 89 94 90 88 89 90 92 92 94 91 86 81 81 81 84 87 94 93 85 80 82 89 80 91 92

GFSNE_sfc_rhum_327.txt.gz
RH
65 63 52 53 53 50 48 42 36 32 38 52 44 51 49 50 62 57 56 76 72 74 79 74 70 68 69 69 70 70 72 71 71 73 73 74 74 73
54 58 55 52 49 48 49 46 44 37 37 46 47 54 54 44 58 59 57 59 73 76 81 77 75 71 68 68 69 69 71 71 72 73 71 72 72 67
58 56 58 53 49 49 51 48 46 41 38 50 47 53 58 60 59 58 53 52 51 71 76 79 77 75 75 74 74 73 71 70 72 73 70 70 70 68
55 53 54 47 58 58 52 56 54 53 43 49 53 51 60 64 67 61 51 44 46 66 73 78 76 73 75 76 75 74 72 70 69 70 71 73 71 69
51 50 54 55 58 57 57 57 55 49 51 46 51 53 56 67 63 57 56 57 42 57 63 75 78 73 74 73 74 72 70 72 71 71 73 73 73 71
58 53 50 50 55 59 56 60 58 53 53 48 50 53 58 68 63 61 60 55 55 46 56 66 74 75 72 69 70 72 71 67 68 67 67 68 73 73
64 53 58 58 67 66 51 60 60 52 47 47 52 57 63 68 74 66 75 61 58 59 52 49 51 54 58 65 63 70 70 62 65 65 66 66 72 75
61 60 57 71 77 80 81 81 67 53 54 49 56 60 64 66 69 68 83 83 78 65 62 52 50 50 55 54 84 78 72 59 63 64 65 64 68 74
58 61 48 53 71 61 79 79 77 77 73 57 60 64 66 65 71 74 74 79 78 75 66 74 56 60 54 51 82 80 76 64 61 63 64 62 67 70
61 62 55 61 66 64 56 57 58 58 59 51 58 60 62 62 66 74 76 71 65 74 68 86 75 78 61 58 78 77 79 76 60 62 65 65 69 68
60 61 59 57 79 78 60 58 56 58 67 75 72 78 81 81 76 69 84 84 84 80 75 86 87 87 86 96 64 71 73 85 66 60 62 65 67 66
58 61 80 61 86 86 54 54 58 70 60 59 57 61 66 67 78 70 77 86 88 92 83 95 93 88 98 94 80 75 77 87 85 67 61 62 68 71
54 59 56 83 83 88 73 53 61 66 87 69 70 70 65 65 72 75 71 76 92 93 78 84 89 87 86 94 82 86 85 94 90 88 76 65 65 74
55 55 59 86 83 88 78 77 84 84 76 79 78 80 76 74 76 78 73 72 80 73 63 66 92 89 86 85 91 83 84 84 86 99 100 83 75 75
53 65 80 85 84 86 81 86 91 73 77 83 86 84 76 73 64 76 71 58 57 63 59 62 72 81 86 85 87 89 94 89 86 97 95 98 100 97
84 71 78 78 78 77 76 77 71 72 72 73 73 72 68 73 71 72 71 68 68 67 51 53 57 64 77 76 80 90 81 92 93 98 93 96 91 98
72 70 73 72 70 71 69 71 74 73 75 73 75 73 69 66 66 72 74 70 68 68 69 60 53 59 71 71 90 86 90 88 91 91 79 90 100 100
64 70 75 77 74 73 72 76 76 80 74 71 70 68 69 68 68 72 77 74 74 70 70 67 63 64 64 72 75 91 90 85 92 83 83 82 88 95
63 68 77 81 78 70 71 72 77 75 69 72 71 72 71 69 75 73 78 76 76 74 72 66 67 68 76 88 84 86 85 85 87 85 78 85 92 100
61 66 68 69 68 68 67 68 71 72 75 74 75 76 81 77 78 78 78 84 78 78 78 71 67 65 72 84 92 100 89 78 80 84 87 80 80 91
66 66 64 65 69 67 70 73 75 77 76 86 78 90 100 78 80 76 78 83 82 84 83 76 68 81 64 67 97 96 100 89 79 71 73 75 74 77
73 70 68 68 72 76 77 84 86 85 80 88 97 100 100 83 82 82 80 86 85 83 76 71 69 62 60 60 72 98 82 96 80 88 91 87 71 85
79 75 77 76 78 79 76 79 78 81 80 82 86 87 100 97 79 77 77 77 76 78 74 74 68 60 62 62 69 78 98 89 68 63 79 85 90 92

GFSNE_sfc_rhum_333.txt.gz
RH
59 52 38 35 36 32 30 29 32 32 35 43 36 44 37 44 55 48 52 74 78 77 74 71 68 71 72 71 68 66 68 68 67 67 67 66 65 64
43 42 38 35 34 34 33 30 30 30 35 30 39 45 46 34 48 50 54 67 75 77 75 72 71 70 70 68 68 68 68 68 67 65 66 67 66 65
46 41 41 37 34 35 37 33 32 31 38 37 36 48 54 52 50 46 51 56 62 75 74 71 69 69 69 71 70 66 65 66 66 65 65 68 68 66
41 42 41 32 45 43 40 43 42 41 36 44 40 45 52 54 53 51 38 32 43 70 74 69 69 68 66 69 71 63 63 65 65 63 65 69 71 68
40 39 39 41 44 43 42 41 37 31 36 37 44 42 49 50 50 49 48 49 32 67 75 75 71 64 67 71 72 66 61 63 63 61 64 68 69 70
42 40 38 39 45 46 41 45 41 41 41 39 40 46 46 52 50 49 52 46 45 34 50 60 69 70 67 71 72 70 62 61 62 62 64 67 68 68
45 35 46 69 78 77 40 43 45 38 36 37 41 46 49 54 56 54 53 51 55 49 49 47 60 62 66 66 60 73 68 60 62 64 66 68 67 68
42 39 47 63 70 81 76 81 76 43 40 37 41 46 53 54 54 58 60 63 73 55 54 52 43 50 46 52 77 72 76 66 60 62 64 67 70 72
40 42 31 36 58 47 70 72 69 70 74 56 47 49 52 54 57 60 58 60 60 54 54 71 53 62 58 57 73 68 72 76 65 62 60 64 69 76
43 43 34 52 51 49 42 44 45 44 47 34 47 50 52 54 55 56 60 59 58 56 61 80 74 78 64 61 67 66 69 76 78 69 67 66 70 74
40 41 37 45 74 69 43 46 44 49 64 70 69 71 71 70 67 61 83 82 79 77 79 86 85 90 85 92 69 68 71 80 80 80 80 74 71 74
40 41 68 50 74 76 48 45 49 60 42 49 54 65 70 64 72 69 67 86 85 94 84 95 92 88 98 94 91 84 85 84 80 81 80 81 76 71
37 38 42 84 78 78 80 44 53 53 71 61 62 60 57 59 68 68 63 82 94 91 77 78 94 90 85 93 83 90 89 95 92 92 81 79 78 77
35 35 43 84 84 82 77 78 78 76 72 74 76 78 79 79 75 76 68 72 77 74 68 66 98 89 90 89 89 82 89 91 94 100 97 79 78 77
32 44 75 83 86 87 85 82 86 62 74 78 80 81 80 75 66 75 67 61 59 60 51 55 79 84 92 92 90 89 93 89 86 98 100 98 100 96
75 64 74 74 74 72 76 74 60 61 70 76 75 71 70 78 71 70 83 83 83 79 56 53 54 61 84 88 88 89 80 94 92 100 95 96 94 100
59 58 69 66 67 65 68 70 73 66 72 75 77 76 75 69 66 67 73 79 79 78 78 75 60 59 75 74 84 85 86 86 92 91 85 92 100 100
53 64 74 71 70 69 72 75 72 75 73 74 75 75 76 74 69 69 67 80 80 76 75 77 80 76 75 73 72 86 90 86 88 84 82 86 91 92
63 66 73 73 71 69 71 73 75 72 66 73 75 77 77 75 78 73 75 76 79 79 79 76 81 78 78 93 93 80 81 80 82 81 82 88 92 100
58 66 68 70 69 68 69 71 71 73 74 74 75 76 79 78 79 76 74 77 78 79 80 77 78 78 78 89 95 100 88 76 76 82 86 83 80 81
63 62 62 64 67 68 73 74 74 73 74 75 74 80 96 80 80 76 74 80 80 77 79 80 76 77 72 72 92 96 94 94 82 72 67 75 77 76
67 65 61 62 68 74 78 79 78 77 75 84 85 91 100 88 83 81 78 78 78 75 76 75 74 80 76 74 76 89 89 94 93 95 94 81 74 84
73 69 73 72 74 77 78 79 77 79 75 74 77 83 100 96 83 79 79 74 72 75 74 76 75 74 77 76 75 75 77 94 74 71 77 87 89 86

GFSNE_sfc_rhum_336.txt.gz
RH
81 71 65 63 66 63 58 56 62 74 81 65 74 62 69 70 70 77 77 76 76 74 73 72 71 67 69 69 68 66 66 66 64 63 65 65 63 62
77 68 64 64 62 60 59 56 57 58 66 64 75 73 65 51 64 73 76 76 76 76 73 70 68 67 69 70 66 64 65 64 62 61 64 66 64 63
70 65 61 59 64 63 64 63 63 67 66 69 69 76 72 73 69 78 75 79 84 76 73 70 70 67 67 71 65 62 63 63 61 61 63 65 67 66
67 64 61 51 68 67 72 69 67 67 67 71 75 75 80 71 69 69 54 53 67 73 74 70 69 71 69 72 69 63 62 63 62 62 64 65 65 66
65 64 63 66 70 72 69 68 63 50 65 72 70 74 77 72 77 67 65 65 48 70 80 78 73 70 73 73 70 66 61 62 63 65 66 67 67 66
65 62 61 64 68 67 63 67 62 67 62 69 74 73 76 74 75 76 76 71 67 48 64 70 78 73 71 74 71 70 63 60 62 64 67 70 70 67
66 60 80 82 85 87 64 67 65 66 67 67 68 73 79 82 80 79 79 77 76 71 74 73 87 86 85 77 68 74 69 63 59 60 62 67 72 73
65 70 74 79 82 81 79 83 79 68 61 64 67 74 74 79 76 87 84 86 94 78 77 84 76 78 74 72 70 70 76 68 66 63 61 62 66 74
64 62 46 46 71 68 78 78 74 69 75 80 67 71 75 75 78 79 79 82 86 77 78 89 87 91 83 69 72 70 70 76 73 70 70 72 75 77
67 62 60 68 70 64 57 58 57 56 68 57 81 76 82 77 75 78 81 80 81 83 85 98 92 92 88 80 71 70 72 73 79 80 80 81 82 79
58 60 67 68 76 70 61 68 68 71 69 70 73 71 70 70 72 86 95 94 96 98 90 94 92 94 86 96 92 72 75 76 81 82 82 85 86 82
60 63 70 64 76 73 70 69 76 79 56 64 72 74 72 69 69 79 90 95 94 90 93 96 91 94 95 98 98 90 87 83 74 67 79 84 79 97
54 62 64 80 74 72 75 76 74 79 79 81 87 88 84 83 83 82 83 94 92 94 92 89 98 92 94 95 90 94 91 92 94 83 74 74 75 85
55 57 68 81 79 75 80 78 79 86 90 96 96 97 97 96 94 90 81 87 88 86 86 80 97 92 95 97 95 93 91 88 96 93 91 72 74 82
55 60 82 82 80 83 80 79 83 88 94 96 97 97 96 94 88 84 78 82 74 82 69 81 94 93 96 97 95 90 87 93 90 97 98 90 91 100
86 81 80 80 82 84 88 86 83 89 92 94 94 94 94 93 93 94 92 90 92 95 75 72 77 84 97 96 94 95 95 92 95 93 89 90 97 96
83 84 88 88 87 90 88 89 91 89 89 92 94 94 94 94 93 91 93 93 93 96 95 92 82 79 90 89 94 95 94 91 91 93 87 84 95 96
77 90 92 91 89 88 89 90 89 89 88 91 92 93 94 94 92 90 93 93 93 93 95 97 94 96 95 86 84 88 96 97 96 87 92 89 95 94
67 82 88 88 88 86 85 88 90 87 82 90 91 91 93 93 92 92 92 96 93 92 94 96 97 92 94 93 93 86 86 96 96 96 95 95 93 93
60 68 76 87 84 82 84 85 89 90 87 86 90 91 92 92 94 92 92 88 91 94 94 94 94 90 88 88 90 98 91 90 95 94 96 96 93 87
64 64 67 76 83 82 83 86 86 88 87 87 88 89 94 90 89 90 90 89 90 91 91 91 86 87 90 90 90 88 97 87 83 89 93 96 96 90
71 68 68 72 78 85 87 89 88 89 88 92 90 91 95 92 89 90 89 89 87 85 87 90 92 94 94 90 88 85 93 95 92 89 86 84 92 96
80 75 76 79 82 86 86 89 88 86 86 87 88 90 99 96 90 89 90 88 87 88 86 90 93 92 88 87 84 85 89 92 99 99 96 92 90 89

GFSNE_sfc_rhum_342.txt.gz
RH
86 72 70 71 70 74 73 62 74 93 92 82 87 89 95 93 88 93 92 72 74 74 70 68 69 68 65 63 63 62 60 60 60 61 62 62 61 61
80 70 70 71 69 76 82 75 80 82 92 84 87 88 87 77 84 93 90 75 76 75 72 69 68 68 65 63 62 61 60 59 60 62 63 64 63 62
74 69 66 67 74 75 76 74 78 74 83 89 86 87 86 86 90 93 89 92 88 75 74 72 71 69 68 65 62 61 61 60 60 62 63 63 63 64
73 70 69 61 72 77 78 75 77 80 82 88 90 92 87 87 96 94 83 69 89 75 74 75 72 72 72 68 64 61 62 64 64 63 65 68 68 66
74 71 72 71 80 81 77 75 80 69 84 86 94 93 91 89 95 91 92 87 76 74 82 82 77 72 75 72 66 61 58 60 61 63 67 70 72 72
75 73 76 73 76 76 68 73 75 83 85 87 93 90 86 86 89 92 96 92 88 63 75 78 81 76 76 75 72 66 61 57 56 57 59 65 72 72
77 73 77 77 78 77 69 78 80 84 85 87 91 90 91 92 91 91 92 94 92 87 87 88 95 94 91 80 79 70 70 66 63 64 66 69 70 71
80 81 86 85 83 82 77 80 76 80 82 85 89 89 88 88 93 91 92 92 95 93 90 90 92 97 91 96 84 77 77 73 69 68 71 74 78 82
82 83 78 69 83 82 87 85 82 79 76 79 80 84 86 87 90 91 90 91 92 91 86 90 95 96 94 84 85 78 78 77 77 79 81 83 86 88
78 78 75 80 80 77 73 71 70 74 78 71 74 78 81 86 82 83 87 89 92 91 90 95 96 95 92 93 84 80 80 79 71 70 76 73 69 71
72 73 72 76 81 77 71 70 71 78 83 86 86 87 88 88 87 91 97 96 97 98 96 95 98 97 98 97 95 85 82 83 72 65 67 67 65 66
78 72 77 72 83 81 71 69 74 84 79 80 80 77 80 85 88 85 92 96 98 96 95 94 99 97 97 98 99 96 97 86 85 68 69 65 66 78
73 75 72 78 82 81 74 69 62 81 86 84 84 83 79 81 87 92 92 93 96 96 92 94 98 99 98 98 98 97 96 94 96 89 77 65 63 69
72 72 75 81 82 79 79 86 88 86 89 92 96 96 96 96 92 89 92 94 91 85 86 90 97 97 97 98 96 97 96 96 96 93 92 82 79 71
70 80 83 84 83 82 79 86 90 92 91 92 91 93 95 93 91 92 88 90 93 91 79 91 94 93 95 96 95 97 95 94 92 92 94 93 92 93
86 87 86 85 83 81 90 88 92 93 88 84 91 93 94 96 97 96 96 95 96 96 93 89 90 90 97 93 92 92 96 93 98 96 91 93 94 94
90 92 93 93 94 93 92 89 92 95 94 94 94 93 94 96 96 97 97 96 96 98 93 96 95 93 93 90 96 94 92 95 92 91 95 91 90 90
84 90 94 92 86 85 87 86 89 89 90 94 94 94 93 94 95 97 97 97 95 94 95 97 97 98 98 92 89 92 92 93 92 94 94 95 91 94
76 84 84 89 88 87 86 83 81 79 78 85 85 88 92 95 97 95 95 96 96 94 94 96 96 95 95 95 91 88 92 88 90 97 94 95 91 92
70 79 76 79 86 88 88 88 86 93 87 84 86 86 88 86 92 94 95 94 95 93 95 97 96 92 93 90 92 93 89 87 94 91 94 96 90 87
71 73 75 74 79 84 87 89 87 90 86 88 87 85 87 88 88 87 90 93 93 92 94 92 90 85 88 94 96 86 84 92 85 86 93 96 94 98
76 72 72 78 81 86 91 90 91 92 92 91 90 91 90 91 88 87 89 92 94 92 89 85 93 95 95 93 91 86 82 88 95 94 85 81 93 95
87 82 83 83 89 88 91 92 89 87 89 90 91 91 93 94 91 90 90 91 90 91 93 91 92 96 89 90 90 87 84 85 91 91 89 91 89 83

GFSNE_sfc_rhum_345.txt.gz
RH
86 92 77 73 73 83 81 72 79 92 91 92 94 94 97 95 90 93 92 71 74 73 70 69 68 65 62 61 60 59 58 59 61 62 62 62 62 61
91 78 72 73 72 85 85 82 82 86 90 87 91 95 92 82 89 95 92 74 75 76 74 70 69 65 63 61 59 59 58 58 59 61 61 61 62 63
81 74 70 68 73 87 88 81 83 78 87 92 91 93 95 96 92 95 91 93 90 75 76 74 73 69 65 62 61 60 60 59 58 60 62 64 64 64
78 74 71 64 72 79 86 78 80 81 81 91 93 94 91 93 96 96 87 78 93 79 76 76 74 75 72 66 62 60 61 62 62 62 63 66 70 67
75 73 73 71 75 80 80 79 81 74 85 89 95 94 94 95 98 94 94 93 81 77 82 83 79 75 76 72 67 62 60 60 60 61 62 66 70 72
78 74 73 71 74 77 74 78 81 86 88 92 94 94 92 92 94 97 98 97 93 70 75 83 83 80 76 78 74 70 65 61 60 60 61 64 69 69
82 75 79 76 76 76 72 81 85 87 91 91 94 94 94 95 95 95 95 96 96 94 92 95 96 95 93 81 82 76 73 71 68 67 68 71 74 75
80 81 81 82 83 80 76 79 78 82 86 91 94 92 91 91 94 94 95 95 95 95 94 94 92 96 90 95 87 85 82 78 74 71 71 74 78 83
82 84 83 79 84 81 85 82 83 81 77 82 86 89 88 89 92 93 92 92 92 93 92 93 96 97 96 86 87 88 84 83 80 79 80 83 86 88
83 83 81 85 86 84 84 82 80 80 79 74 78 80 80 85 81 83 89 91 92 93 91 96 96 96 95 96 87 88 84 82 83 78 72 73 73 70
80 82 80 83 85 83 79 78 78 81 85 86 84 82 84 87 86 91 98 96 98 97 97 96 98 98 98 98 95 87 86 83 83 81 71 68 68 66
84 82 85 78 85 84 76 80 81 84 83 86 86 86 90 92 88 84 92 96 98 96 96 94 99 98 95 98 99 96 97 87 85 84 84 70 66 83
80 86 82 85 85 84 79 77 74 82 89 87 88 87 85 88 95 93 92 93 96 96 93 94 97 100 98 97 97 98 98 96 96 94 85 80 77 76
77 80 81 82 85 85 83 81 82 85 92 94 96 94 94 93 93 93 93 94 92 85 88 91 97 98 98 98 97 97 97 96 96 92 91 83 81 81
73 80 83 83 82 88 84 83 89 87 92 92 88 87 89 88 87 88 87 90 93 92 86 92 94 96 96 96 96 97 95 95 93 92 93 92 89 90
91 90 89 87 85 82 90 87 89 90 87 85 89 89 91 94 95 95 95 95 95 95 94 90 92 92 97 94 94 92 96 94 98 97 94 94 94 92
92 94 94 94 95 95 94 91 89 95 94 94 94 92 94 94 95 97 97 98 98 98 97 97 96 93 93 89 97 94 94 95 94 92 95 92 90 91
89 92 93 92 90 90 90 90 92 90 88 94 93 92 89 92 93 97 97 98 96 94 96 98 98 99 99 94 91 94 92 94 92 94 95 97 94 90
79 85 81 88 88 90 89 88 86 86 83 89 90 90 91 93 96 94 94 95 96 94 94 97 97 95 97 96 89 89 91 90 92 97 95 97 93 89
75 80 78 78 86 88 90 87 89 93 87 86 86 87 89 88 92 92 92 91 92 91 94 95 97 94 96 90 84 88 90 87 94 92 92 95 89 84
81 79 77 77 79 81 87 89 89 88 85 85 85 85 87 86 85 83 85 88 91 90 92 90 87 86 88 96 97 90 84 90 80 84 90 96 92 92
85 80 77 77 81 85 89 91 91 92 90 88 87 88 87 87 84 83 85 86 88 90 89 84 90 96 96 96 94 89 86 84 88 87 81 79 90 96
97 96 95 93 91 90 91 92 89 88 88 88 89 88 92 92 88 87 86 87 87 88 91 93 91 97 93 92 92 91 89 88 85 88 90 88 91 85

GFSNE_sfc_rhum_348.txt.gz
RH
81 85 81 85 83 82 80 74 77 85 81 81 84 86 87 81 86 82 81 72 74 74 71 70 66 62 60 59 57 56 57 57 59 60 60 60 61 60
84 89 83 77 76 84 84 78 75 76 73 78 82 87 86 74 84 85 82 74 75 77 76 73 69 63 60 58 57 56 55 55 57 59 61 63 62 62
88 85 81 73 74 84 85 81 79 76 78 86 80 85 91 87 83 86 81 82 78 76 77 76 76 70 64 61 60 58 57 56 56 58 60 64 65 64
86 84 77 64 74 85 86 82 81 78 79 85 87 86 87 89 88 91 80 75 77 78 78 78 77 77 72 68 64 62 61 60 60 58 59 62 67 68
86 79 75 75 75 81 85 81 80 72 79 82 88 86 85 87 92 90 86 87 77 77 82 84 82 78 77 75 70 66 64 64 62 61 60 59 63 68
85 79 76 72 73 75 78 82 79 82 81 83 86 86 84 88 87 90 95 89 84 69 72 80 82 80 80 80 78 73 70 67 65 63 64 67 69 68
89 80 81 77 75 73 68 80 81 83 84 83 86 87 86 90 87 88 88 86 87 84 79 78 82 81 80 82 79 79 79 74 71 69 68 71 76 75
89 84 80 82 82 80 77 79 75 78 82 84 85 85 86 84 87 86 88 89 90 84 85 82 76 82 78 78 82 87 85 83 78 75 73 72 76 82
89 83 78 74 84 79 83 83 83 80 80 75 80 82 82 82 85 86 86 84 83 81 84 88 82 81 77 73 86 88 88 86 84 83 81 81 85 88
86 82 77 83 84 81 81 79 80 80 78 71 74 75 75 80 75 76 79 80 82 82 81 91 83 88 77 79 87 88 89 88 85 85 85 85 77 76
84 83 78 81 86 85 79 80 81 82 84 84 84 83 84 87 82 84 93 92 91 90 91 91 91 92 90 91 80 86 91 90 88 84 86 82 79 78
86 84 87 78 88 88 76 78 80 82 82 82 82 85 88 87 88 76 85 92 91 95 91 97 98 94 98 88 89 87 88 90 91 86 84 84 84 79
80 86 84 86 87 87 80 77 74 80 86 83 85 86 83 89 92 88 82 85 93 96 86 89 95 94 91 92 87 88 92 92 94 94 88 85 86 86
78 77 79 87 87 87 85 85 85 86 88 90 90 90 90 90 90 91 88 86 84 79 82 79 95 92 91 90 93 86 88 91 92 96 96 87 88 86
73 77 83 86 87 89 86 86 86 83 88 89 86 86 86 85 78 82 82 84 85 85 79 83 88 91 89 90 93 90 90 89 89 93 93 93 92 90
89 86 87 87 86 85 92 88 82 79 79 77 80 82 82 87 84 81 82 85 84 84 83 83 82 81 89 90 88 91 89 93 91 95 92 92 90 92
90 92 92 91 90 90 88 88 89 86 83 82 85 83 81 80 77 84 85 88 88 87 90 89 87 85 88 84 95 93 94 93 92 91 87 94 94 97
90 92 90 88 88 89 89 88 87 87 83 83 83 82 82 84 82 86 86 91 91 88 91 92 91 96 96 91 90 94 94 93 91 90 92 94 94 91
95 93 92 89 86 89 88 88 86 85 79 83 82 84 85 86 88 87 88 88 92 90 89 90 94 91 93 93 83 89 91 88 90 94 93 94 93 92
85 83 84 87 90 86 88 88 88 91 88 85 86 85 88 85 88 87 88 88 88 85 88 89 93 90 90 87 87 91 89 83 86 89 90 91 86 83
90 90 86 85 85 85 89 91 91 90 87 87 87 87 91 87 87 85 84 87 86 84 84 83 82 82 82 86 97 93 86 90 80 82 80 86 86 84
94 87 84 83 85 89 92 94 94 94 91 90 89 91 91 87 85 83 83 84 85 83 81 80 82 89 91 93 93 93 88 86 87 91 84 80 83 93
99 97 98 97 97 96 96 96 94 93 92 92 90 89 99 93 87 86 85 84 83 83 84 87 87 90 88 88 91 92 91 94 87 86 88 91 90 87